Sarasota, FL

9:17 AM EDT on October 16, 2019 (GMT -0400)
Sarasota-bradenton

Weather History for KSRQ - August, 2019

Change the Weather History Date:

Monday, August 26, 2019

  Actual Average Record
Temperature  
Mean Temperature 86 °F 82 °F  
Max Temperature 91 °F 90 °F 97 °F (1938)
Min Temperature 79 °F 75 °F 67 °F (1957)
Degree Days  
Heating Degree Days 0 0  
Month to date heating degree days 0 0  
Since 1 June heating degree days 0 0  
Since 1 July heating degree days 0 0  
Cooling Degree Days 20 17  
Month to date cooling degree days 483 442  
Year to date cooling degree days 2754 2204  
Since 1 June cooling degree days 1597 1453  
Growing Degree Days 36 (Base 50)    
Moisture  
Dew Point 77 °F    
Average Humidity 80    
Maximum Humidity 94    
Minimum Humidity 65    
Precipitation  
Precipitation T in 0.28 in 8.12 in (2017)
Month to date precipitation 12.42 7.69  
Year to date precipitation 40.95 36.88  
Sea Level Pressure  
Sea Level Pressure 29.93 in    
Wind  
Wind Speed 7 mph ()    
Max Wind Speed 14 mph    
Max Gust Speed 17 mph    
Visibility 10.0 miles    
Events Rain , Thunderstorm    
T = Trace of Precipitation, MM = Missing Value Source: Averaged Metar Reports

Daily Weather History Graph

Daily Weather History Graph

Search for Another Location

Airport or City:

Astronomy

Aug. 26, 2019 Rise Set
Actual Time 7:06 AM EDT 7:57 PM EDT
Civil Twilight 6:42 AM EDT 8:21 PM EDT
Nautical Twilight 6:14 AM EDT 8:49 PM EDT
Astronomical Twilight 5:45 AM EDT 9:18 PM EDT
Moon 2:49 AM EDT (8/26) 5:00 PM EDT (8/26)
Length of Visible Light 13h 38m
Length of Day
12h 50m
Waning Crescent, 19% of the Moon is Illuminated
Aug 26
Waning Crescent
Aug 30
New
Sep 5
First Quarter
Sep 14
Full
Sep 21
Last Quarter

Hourly Weather History & Observations

Time (EDT) Temp. Heat Index Dew Point Humidity Pressure Visibility Wind Dir Wind Speed Gust Speed Precip Events Conditions
12:53 AM 82.9 °F 91.8 °F 77.0 °F 82% 29.92 in 10.0 mi East 6.9 mph - N/A   Clear
1:53 AM 82.0 °F 90.2 °F 77.0 °F 85% 29.93 in 10.0 mi ENE 6.9 mph - N/A   Clear
2:53 AM 81.0 °F 87.3 °F 75.9 °F 85% 29.91 in 10.0 mi East 9.2 mph - N/A   Clear
3:36 AM 81.0 °F 87.9 °F 77.0 °F 88% 29.90 in 10.0 mi East 10.4 mph - N/A   Mostly Cloudy
3:53 AM 80.1 °F 85.8 °F 77.0 °F 90% 29.91 in 10.0 mi East 8.1 mph - N/A   Overcast
4:40 AM 80.1 °F 85.8 °F 77.0 °F 90% 29.91 in 10.0 mi ESE 10.4 mph - N/A   Scattered Clouds
4:53 AM 80.1 °F 85.8 °F 77.0 °F 90% 29.91 in 10.0 mi East 8.1 mph - N/A   Mostly Cloudy
5:10 AM 80.1 °F 85.8 °F 77.0 °F 90% 29.91 in 10.0 mi ESE 8.1 mph - N/A   Mostly Cloudy
5:31 AM 80.1 °F 85.8 °F 77.0 °F 90% 29.92 in 10.0 mi East 4.6 mph - N/A   Overcast
5:53 AM 80.1 °F 85.8 °F 77.0 °F 90% 29.92 in 10.0 mi ESE 5.8 mph - N/A   Mostly Cloudy
6:02 AM 80.1 °F 85.8 °F 77.0 °F 90% 29.92 in 10.0 mi East 4.6 mph - N/A   Mostly Cloudy
6:13 AM 80.1 °F 85.8 °F 77.0 °F 90% 29.92 in 10.0 mi East 5.8 mph - N/A   Mostly Cloudy
6:29 AM 80.1 °F 85.8 °F 77.0 °F 90% 29.92 in 10.0 mi East 4.6 mph - N/A   Mostly Cloudy
6:53 AM 79.0 °F - 77.0 °F 94% 29.93 in 10.0 mi East 6.9 mph - 0.00 in Rain Light Rain
7:53 AM 80.1 °F 85.8 °F 77.0 °F 90% 29.94 in 10.0 mi East 9.2 mph - 0.00 in   Overcast
8:53 AM 82.0 °F 90.2 °F 77.0 °F 85% 29.95 in 10.0 mi ESE 11.5 mph - N/A   Clear
9:53 AM 84.9 °F 96.6 °F 78.1 °F 80% 29.96 in 10.0 mi ESE 8.1 mph - N/A   Clear
10:53 AM 88.0 °F 101.3 °F 78.1 °F 72% 29.97 in 10.0 mi SE 5.8 mph - N/A   Partly Cloudy
11:53 AM 90.0 °F 102.5 °F 77.0 °F 65% 29.96 in 10.0 mi Calm Calm - N/A   Scattered Clouds
12:18 PM 89.1 °F 103.2 °F 78.1 °F 70% 29.96 in 10.0 mi WSW 5.8 mph - N/A   Mostly Cloudy
12:53 PM 90.0 °F 105.8 °F 79.0 °F 70% 29.95 in 10.0 mi SW 9.2 mph - N/A   Mostly Cloudy
1:51 PM 91.4 °F 107.2 °F 78.8 °F 66% 29.94 in 10.0 mi WSW 10.4 mph - N/A Thunderstorm Mostly Cloudy
1:53 PM 91.0 °F 107.6 °F 79.0 °F 68% 29.94 in 10.0 mi WSW 10.4 mph - N/A Thunderstorm Mostly Cloudy
2:26 PM 90.0 °F 104.5 °F 78.1 °F 68% 29.93 in 10.0 mi WSW 10.4 mph - N/A Thunderstorm Thunderstorm
2:53 PM 88.0 °F 100.2 °F 77.0 °F 70% 29.93 in 10.0 mi WSW 8.1 mph - N/A Thunderstorm Mostly Cloudy
3:53 PM 88.0 °F 101.3 °F 78.1 °F 72% 29.91 in 10.0 mi WSW 9.2 mph - N/A   Scattered Clouds
4:53 PM 90.0 °F 105.8 °F 79.0 °F 70% 29.91 in 10.0 mi SW 11.5 mph - N/A   Partly Cloudy
5:53 PM 89.1 °F 103.2 °F 78.1 °F 70% 29.92 in 10.0 mi WSW 9.2 mph - N/A   Scattered Clouds
6:53 PM 88.0 °F 98.5 °F 75.9 °F 67% 29.92 in 10.0 mi West 6.9 mph - N/A   Clear
7:53 PM 86.0 °F 95.1 °F 75.0 °F 70% 29.93 in 10.0 mi West 5.8 mph - N/A   Clear
8:53 PM 86.0 °F 95.1 °F 75.0 °F 70% 29.95 in 10.0 mi WNW 8.1 mph - N/A   Clear
9:53 PM 82.9 °F 90.8 °F 75.9 °F 79% 29.97 in 10.0 mi East 5.8 mph - N/A   Clear
10:53 PM 82.0 °F 90.2 °F 77.0 °F 85% 29.99 in 10.0 mi SE 3.5 mph - N/A   Clear
11:53 PM 81.0 °F 87.3 °F 75.9 °F 85% 29.99 in 10.0 mi ESE 4.6 mph - N/A   Mostly Cloudy